Time,TemperatureF,DewpointF,PressureIn,WindDirection,WindDirectionDegrees,WindSpeedMPH,WindSpeedGustMPH,Humidity,HourlyPrecipIn,Conditions,Clouds,dailyrainin,SolarRadiationWatts/m^2,SoftwareType,DateUTC
2013-01-06 14:12:00,26.0,0.0,-100.00,NE,50,4.0,8.0,32,0.00,,,0.00,463.000000,,2013-01-06 21:12:00,
2013-01-06 14:22:00,26.0,0.0,-100.00,NE,50,4.0,8.0,32,0.00,,,0.00,463.000000,,2013-01-06 21:22:00,
2013-01-06 14:33:00,26.0,0.0,-100.00,NE,50,4.0,8.0,32,0.00,,,0.00,463.000000,,2013-01-06 21:33:00,
2013-01-06 14:42:00,26.0,0.0,-100.00,NE,50,4.0,8.0,32,0.00,,,0.00,463.000000,,2013-01-06 21:42:00,
2013-01-06 15:12:00,24.0,-1.0,-100.00,NE,49,5.0,9.0,33,0.00,,,0.00,345.000000,,2013-01-06 22:12:00,
2013-01-06 15:22:00,24.0,-1.0,-100.00,NE,49,5.0,9.0,33,0.00,,,0.00,345.000000,,2013-01-06 22:22:00,
2013-01-06 15:33:00,24.0,-1.0,-100.00,NE,49,5.0,9.0,33,0.00,,,0.00,345.000000,,2013-01-06 22:33:00,
2013-01-06 15:42:00,24.0,-1.0,-100.00,NE,49,5.0,9.0,33,0.00,,,0.00,345.000000,,2013-01-06 22:42:00,
2013-01-06 16:12:00,26.0,-1.0,-100.00,ENE,63,4.0,10.0,30,0.00,,,0.00,309.000000,,2013-01-06 23:12:00,
2013-01-06 16:22:00,26.0,-1.0,-100.00,ENE,63,4.0,10.0,30,0.00,,,0.00,309.000000,,2013-01-06 23:22:00,
2013-01-06 16:32:00,26.0,-1.0,-100.00,ENE,63,4.0,10.0,30,0.00,,,0.00,309.000000,,2013-01-06 23:32:00,
2013-01-06 16:42:00,26.0,-1.0,-100.00,ENE,63,4.0,10.0,30,0.00,,,0.00,309.000000,,2013-01-06 23:42:00,
2013-01-06 17:12:00,26.0,-3.0,-100.00,NNE,17,1.0,6.0,28,-99.99,,,0.00,68.000000,,2013-01-07 00:12:00,
2013-01-06 17:22:00,26.0,-3.0,-100.00,NNE,17,1.0,6.0,28,-99.99,,,0.00,68.000000,,2013-01-07 00:22:00,
2013-01-06 17:32:00,26.0,-3.0,-100.00,NNE,17,1.0,6.0,28,-99.99,,,0.00,68.000000,,2013-01-07 00:32:00,
2013-01-06 17:42:00,26.0,-3.0,-100.00,NNE,17,1.0,6.0,28,-99.99,,,0.00,68.000000,,2013-01-07 00:42:00,
2013-01-06 18:12:00,27.0,-3.0,-100.00,South,171,0.0,7.0,26,0.00,,,-99.99,5.000000,,2013-01-07 01:12:00,
2013-01-06 18:22:00,27.0,-3.0,-100.00,South,171,0.0,7.0,26,0.00,,,-99.99,5.000000,,2013-01-07 01:22:00,
2013-01-06 18:32:00,27.0,-3.0,-100.00,South,171,0.0,7.0,26,0.00,,,-99.99,5.000000,,2013-01-07 01:32:00,
2013-01-06 18:42:00,27.0,-3.0,-100.00,South,171,0.0,7.0,26,0.00,,,-99.99,5.000000,,2013-01-07 01:42:00,
2013-01-06 19:12:00,26.0,-3.0,-100.00,WSW,254,2.0,7.0,27,0.00,,,0.00,0.000000,,2013-01-07 02:12:00,
2013-01-06 19:22:00,26.0,-3.0,-100.00,WSW,254,2.0,7.0,27,0.00,,,0.00,0.000000,,2013-01-07 02:22:00,
2013-01-06 19:32:00,26.0,-3.0,-100.00,WSW,254,2.0,7.0,27,0.00,,,0.00,0.000000,,2013-01-07 02:32:00,
2013-01-06 19:42:00,26.0,-3.0,-100.00,WSW,254,2.0,7.0,27,0.00,,,0.00,0.000000,,2013-01-07 02:42:00,
2013-01-06 20:12:00,25.0,-3.0,-100.00,SW,236,2.0,6.0,29,0.00,,,0.00,0.000000,,2013-01-07 03:12:00,
2013-01-06 20:22:00,25.0,-3.0,-100.00,SW,236,2.0,6.0,29,0.00,,,0.00,0.000000,,2013-01-07 03:22:00,
2013-01-06 20:32:00,25.0,-3.0,-100.00,SW,236,2.0,6.0,29,0.00,,,0.00,0.000000,,2013-01-07 03:32:00,
2013-01-06 20:42:00,25.0,-3.0,-100.00,SW,236,2.0,6.0,29,0.00,,,0.00,0.000000,,2013-01-07 03:42:00,
2013-01-06 21:12:00,24.0,-4.0,-100.00,WNW,286,4.0,6.0,29,0.00,,,0.00,0.000000,,2013-01-07 04:12:00,
2013-01-06 21:22:00,24.0,-4.0,-100.00,WNW,286,4.0,6.0,29,0.00,,,0.00,0.000000,,2013-01-07 04:22:00,
2013-01-06 21:32:00,24.0,-4.0,-100.00,WNW,286,4.0,6.0,29,0.00,,,0.00,0.000000,,2013-01-07 04:32:00,
2013-01-06 21:42:00,24.0,-4.0,-100.00,WNW,286,4.0,6.0,29,0.00,,,0.00,0.000000,,2013-01-07 04:42:00,
2013-01-06 22:12:00,21.0,1.0,-100.00,NE,40,5.0,8.0,40,0.00,,,0.00,0.000000,,2013-01-07 05:12:00,
2013-01-06 22:22:00,21.0,1.0,-100.00,NE,40,5.0,8.0,40,0.00,,,0.00,0.000000,,2013-01-07 05:22:00,
2013-01-06 22:32:00,21.0,1.0,-100.00,NE,40,5.0,8.0,40,0.00,,,0.00,0.000000,,2013-01-07 05:32:00,
2013-01-06 22:42:00,21.0,1.0,-100.00,NE,40,5.0,8.0,40,0.00,,,0.00,0.000000,,2013-01-07 05:42:00,
2013-01-06 23:12:00,21.0,6.0,-100.00,ENE,60,2.0,10.0,52,0.00,,,0.00,0.000000,,2013-01-07 06:12:00,
2013-01-06 23:22:00,21.0,6.0,-100.00,ENE,60,2.0,10.0,52,0.00,,,0.00,0.000000,,2013-01-07 06:22:00,